CW2433 Weather Reports


Display with metric or nautical units.
time (UTC)temp
F
wind
direction
speed
MPH
gust
MPH
rain 1hr
in
rain 24hr
in
rain mn
in
humidity
%
barometer
mb
20260903044509 84 164 2.0 7.0 0.00 0.00 0.00 66 1009.4
20260903044009 84 175 1.0 3.0 0.00 0.00 0.00 65 1009.4
20260903043509 84 182 1.0 3.0 0.00 0.00 0.00 65 1009.4
20260903043009 84 187 1.0 3.0 0.00 0.00 0.00 65 1009.4
20260903042009 84 138 2.0 5.0 0.00 0.00 0.00 65 1009.3
20260903041509 84 148 1.0 6.0 0.00 0.00 0.00 65 1009.3
20260903041009 84 189 1.0 6.0 0.00 0.00 0.00 65 1009.3
20260903040509 84 154 1.0 6.0 0.00 0.00 0.00 65 1009.3
20260903040009 85 159 2.0 6.0 0.00 0.00 0.00 64 1009.5
20260903035509 85 162 2.0 6.0 0.00 0.00 0.00 64 1009.4
20260903035009 85 164 1.0 6.0 0.00 0.00 0.00 64 1009.4
20260903034509 85 153 1.0 3.0 0.00 0.00 0.00 64 1009.4
20260903033509 85 183 1.0 7.0 0.00 0.00 0.00 64 1009.4
20260903033009 85 169 2.0 7.0 0.00 0.00 0.00 63 1009.4
20260903032509 86 179 2.0 6.0 0.00 0.00 0.00 63 1009.4
20260903031509 86 177 2.0 10.0 0.00 0.00 0.00 63 1009.4
20260903031009 86 159 2.0 7.0 0.00 0.00 0.00 63 1009.4
20260903030010 86 164 3.0 6.0 0.00 0.00 0.00 63 1009.4
20260903025510 86 165 2.0 6.0 0.00 0.00 0.00 63 1009.4
20260903025009 86 175 3.0 7.0 0.00 0.00 0.00 63 1009.4
20260903024510 87 159 3.0 7.0 0.00 0.00 0.00 62 1009.3
20260903023010 87 188 1.0 7.0 0.00 0.00 0.00 62 1009.1
20260903022509 87 199 3.0 7.0 0.00 0.00 0.00 62 1009.0
20260903022009 88 148 2.0 7.0 0.00 0.00 0.00 61 1008.9
20260903021510 88 181 2.0 7.0 0.00 0.00 0.00 61 1008.9
20260903021009 88 184 2.0 6.0 0.00 0.00 0.00 61 1008.9
20260903020509 89 159 1.0 7.0 0.00 0.00 0.00 62 1008.8
20260903020010 89 146 1.0 7.0 0.00 0.00 0.00 61 1008.9
20260903015510 89 144 1.0 5.0 0.00 0.00 0.00 61 1008.9
20260903015010 89 189 2.0 3.0 0.00 0.00 0.00 61 1008.8
20260903014510 90 165 1.0 3.0 0.00 0.00 0.00 60 1008.8
20260903014010 90 138 2.0 3.0 0.00 0.00 0.00 59 1008.8
20260903013510 90 161 0.0 0.0 0.00 0.00 0.00 59 1008.7
20260903013010 91 123 0.0 3.0 0.00 0.00 0.00 58 1008.6
20260903012010 91 158 1.0 5.0 0.00 0.00 0.00 56 1008.4
20260903011510 92 167 2.0 5.0 0.00 0.00 0.00 56 1008.4
20260903011010 92 160 1.0 3.0 0.00 0.00 0.00 55 1008.4
20260903010510 92 165 1.0 3.0 0.00 0.00 0.00 54 1008.3
20260903010010 93 158 2.0 3.0 0.00 0.00 0.00 54 1008.4
20260903005510 93 152 1.0 3.0 0.00 0.00 0.00 53 1008.5
20260903005010 93 153 1.0 3.0 0.00 0.00 0.00 53 1008.5
20260903003510 94 142 1.0 3.0 0.00 0.00 0.00 51 1008.5
20260903002509 95 178 1.0 5.0 0.00 0.00 0.00 50 1008.4
20260903002009 95 171 1.0 5.0 0.00 0.00 0.00 50 1008.4
20260903001509 95 163 2.0 5.0 0.00 0.00 0.00 50 1008.4
20260903001009 95 188 1.0 3.0 0.00 0.00 0.00 50 1008.4
20260903000509 95 164 1.0 3.0 0.00 0.00 0.00 50 1008.4
20260903000009 95 158 1.0 7.0 0.00 0.00 0.00 50 1008.5
20260902235509 95 202 2.0 7.0 0.00 0.00 0.00 49 1008.6
20260902235009 95 193 3.0 7.0 0.00 0.00 0.00 49 1008.5
20260902234509 95 130 2.0 5.0 0.00 0.00 0.00 49 1008.5
20260902234009 95 205 2.0 5.0 0.00 0.00 0.00 49 1008.6
20260902233509 95 161 2.0 7.0 0.00 0.00 0.00 49 1008.6
20260902233009 95 205 2.0 7.0 0.00 0.00 0.00 49 1008.6
20260902232509 95 139 1.0 6.0 0.00 0.00 0.00 49 1008.5
20260902232009 95 159 3.0 7.0 0.00 0.00 0.00 49 1008.5
20260902231509 95 170 2.0 7.0 0.00 0.00 0.00 49 1008.6
20260902231009 95 148 3.0 7.0 0.00 0.00 0.00 48 1008.5
20260902230509 96 205 3.0 5.0 0.00 0.00 0.00 49 1008.5
20260902225509 96 208 1.0 6.0 0.00 0.00 0.00 49 1008.6
20260902225009 96 208 1.0 7.0 0.00 0.00 0.00 48 1008.6
20260902224509 96 209 3.0 7.0 0.00 0.00 0.00 48 1008.6
20260902224009 96 209 2.0 7.0 0.00 0.00 0.00 48 1008.5
20260902223509 96 206 4.0 8.0 0.00 0.00 0.00 48 1008.6
20260902222509 96 207 4.0 10.0 0.00 0.00 0.00 47 1008.7
20260902222009 96 194 4.0 10.0 0.00 0.00 0.00 47 1008.7
20260902221009 96 148 4.0 10.0 0.00 0.00 0.00 47 1008.7
20260902220511 96 169 2.0 10.0 0.00 0.00 0.00 48 1008.7
20260902220010 97 201 5.0 10.0 0.00 0.00 0.00 47 1008.6
20260902215509 97 183 5.0 7.0 0.00 0.00 0.00 48 1008.6
20260902215009 97 220 2.0 7.0 0.00 0.00 0.00 48 1008.6
20260902214009 97 196 2.0 10.0 0.00 0.00 0.00 48 1008.6
20260902213509 97 213 3.0 9.0 0.00 0.00 0.00 47 1008.6
20260902213010 97 184 3.0 7.0 0.00 0.00 0.00 48 1008.7
20260902212510 97 219 3.0 9.0 0.00 0.00 0.00 47 1008.7
20260902212010 97 218 4.0 9.0 0.00 0.00 0.00 47 1008.7
20260902211010 97 223 3.0 6.0 0.00 0.00 0.00 47 1008.7
20260902210010 97 168 2.0 10.0 0.00 0.00 0.00 48 1008.8
20260902205010 96 218 3.0 6.0 0.00 0.00 0.00 48 1009.0
20260902204510 96 210 1.0 7.0 0.00 0.00 0.00 48 1009.1
20260902203510 96 194 5.0 9.0 0.00 0.00 0.00 46 1009.1
20260902202510 97 207 6.0 10.0 0.00 0.00 0.00 46 1009.1
20260902202010 96 219 5.0 9.0 0.00 0.00 0.00 47 1009.2
20260902201510 96 226 5.0 12.0 0.00 0.00 0.00 47 1009.2
20260902200010 96 201 4.0 9.0 0.00 0.00 0.00 48 1009.2
20260902195510 96 193 5.0 9.0 0.00 0.00 0.00 48 1009.2
20260902194509 95 194 3.0 7.0 0.00 0.00 0.00 48 1009.3
20260902194009 95 221 5.0 12.0 0.00 0.00 0.00 48 1009.5
20260902193509 95 183 3.0 12.0 0.00 0.00 0.00 48 1009.5
20260902193009 95 161 6.0 12.0 0.00 0.00 0.00 48 1009.5
20260902192009 95 157 3.0 10.0 0.00 0.00 0.00 50 1009.5
20260902191509 95 221 4.0 10.0 0.00 0.00 0.00 49 1009.6
20260902191009 95 179 3.0 10.0 0.00 0.00 0.00 49 1009.7
20260902190509 95 217 2.0 7.0 0.00 0.00 0.00 48 1009.8
20260902190009 95 209 2.0 7.0 0.00 0.00 0.00 49 1009.7
20260902185509 95 228 3.0 7.0 0.00 0.00 0.00 47 1009.8
20260902185009 95 204 3.0 7.0 0.00 0.00 0.00 48 1009.8
20260902184509 95 213 2.0 7.0 0.00 0.00 0.00 50 1009.9
20260902184009 95 194 2.0 7.0 0.00 0.00 0.00 49 1010.0
20260902183509 95 214 2.0 7.0 0.00 0.00 0.00 48 1010.1
20260902183009 94 180 3.0 7.0 0.00 0.00 0.00 48 1010.2
20260902182509 95 207 3.0 7.0 0.00 0.00 0.00 47 1010.3
20260902182009 95 186 3.0 7.0 0.00 0.00 0.00 48 1010.2
20260902181510 95 203 2.0 6.0 0.00 0.00 0.00 49 1010.3
20260902181009 95 219 3.0 6.0 0.00 0.00 0.00 49 1010.3
20260902180509 94 215 3.0 7.0 0.00 0.00 0.00 48 1010.5
20260902180009 94 218 3.0 9.0 0.00 0.00 0.00 49 1010.5
20260902175509 94 237 4.0 9.0 0.00 0.00 0.00 47 1010.5
20260902175010 94 211 4.0 6.0 0.00 0.00 0.00 49 1010.7
20260902174510 93 217 2.0 10.0 0.00 0.00 0.00 49 1010.6
20260902174010 93 194 3.0 10.0 0.00 0.00 0.00 50 1010.7
20260902173509 92 134 3.0 9.0 0.00 0.00 0.00 53 1010.8
20260902173010 91 148 3.0 9.0 0.00 0.00 0.00 52 1010.8
20260902172510 91 130 2.0 5.0 0.00 0.00 0.00 55 1010.8
20260902172010 90 207 2.0 6.0 0.00 0.00 0.00 55 1011.0
20260902171510 90 214 3.0 7.0 0.00 0.00 0.00 53 1011.0
20260902171009 89 205 3.0 7.0 0.00 0.00 0.00 53 1011.0
20260902164511 89 214 1.0 3.0 0.00 0.00 0.00 55 1011.0
20260902164010 88 214 1.0 6.0 0.00 0.00 0.00 54 1011.0
20260902163510 88 175 2.0 6.0 0.00 0.00 0.00 57 1011.0
20260902163010 88 185 2.0 6.0 0.00 0.00 0.00 59 1011.0
20260902162510 88 186 1.0 8.0 0.00 0.00 0.00 60 1011.1
20260902161510 85 159 2.0 6.0 0.00 0.00 0.00 65 1011.1
20260902161010 84 115 3.0 6.0 0.00 0.00 0.00 66 1011.2
20260902160509 84 144 2.0 5.0 0.00 0.00 0.00 69 1011.3
20260902160010 83 138 2.0 6.0 0.00 0.00 0.00 67 1011.4
20260902155510 83 141 2.0 6.0 0.00 0.00 0.00 67 1011.3
20260902155010 83 134 2.0 6.0 0.00 0.00 0.00 68 1011.3
20260902154510 82 136 2.0 5.0 0.00 0.00 0.00 68 1011.4
20260902154010 82 146 1.0 5.0 0.00 0.00 0.00 69 1011.6
20260902153010 81 154 1.0 3.0 0.00 0.00 0.00 70 1011.5
20260902152510 81 132 1.0 3.0 0.00 0.00 0.00 70 1011.6
20260902152010 81 150 1.0 3.0 0.00 0.00 0.00 70 1011.6
20260902151010 80 143 1.0 6.0 0.00 0.00 0.00 71 1011.6
20260902150009 80 165 2.0 6.0 0.00 0.00 0.00 70 1011.4
20260902145509 80 119 2.0 6.0 0.00 0.00 0.00 70 1011.4
20260902145010 80 141 2.0 6.0 0.00 0.00 0.00 69 1011.4
20260902144509 80 175 1.0 3.0 0.00 0.00 0.00 69 1011.4
20260902144009 80 150 1.0 5.0 0.00 0.00 0.00 68 1011.4
20260902142509 79 148 2.0 6.0 0.00 0.00 0.00 70 1011.2
20260902141509 79 128 2.0 6.0 0.00 0.00 0.00 70 1011.4
20260902141009 78 186 2.0 8.0 0.00 0.00 0.00 71 1011.6
20260902140509 78 187 3.0 8.0 0.00 0.00 0.00 72 1011.7
20260902140009 77 138 1.0 5.0 0.00 0.00 0.00 73 1011.6
20260902135509 76 149 1.0 7.0 0.00 0.00 0.00 75 1011.6
20260902135009 76 142 2.0 7.0 0.00 0.00 0.00 75 1011.8
20260902134509 75 153 2.0 7.0 0.00 0.00 0.00 77 1011.8
20260902134009 75 150 1.0 7.0 0.00 0.00 0.00 79 1011.8
20260902133509 74 142 3.0 7.0 0.00 0.00 0.00 81 1011.8
20260902133009 74 131 1.0 2.0 0.00 0.00 0.00 83 1011.9
20260902132509 74 130 1.0 2.0 0.00 0.00 0.00 84 1011.9
20260902131509 73 142 1.0 2.0 0.00 0.00 0.00 85 1012.0
20260902131009 73 170 1.0 2.0 0.00 0.00 0.00 86 1012.0
20260902130509 73 251 0.0 0.0 0.00 0.00 0.00 86 1012.1
20260902125509 72 244 0.0 0.0 0.00 0.00 0.00 85 1012.1
20260902125010 72 235 0.0 1.0 0.00 0.00 0.00 85 1012.1
20260902124510 72 252 0.0 2.0 0.00 0.00 0.00 85 1012.1
20260902124009 72 252 0.0 2.0 0.00 0.00 0.00 85 1012.2
20260902123509 72 284 0.0 2.0 0.00 0.00 0.00 85 1012.1
20260902123010 72 261 0.0 3.0 0.00 0.00 0.00 85 1012.0
20260902122509 72 261 1.0 3.0 0.00 0.00 0.00 85 1012.2
20260902122010 72 261 0.0 2.0 0.00 0.00 0.00 84 1011.9
20260902121510 72 261 0.0 1.0 0.00 0.00 0.00 84 1011.8
20260902120010 72 25 0.0 2.0 0.00 0.00 0.00 83 1011.7
20260902115509 72 25 0.0 2.0 0.00 0.00 0.00 82 1011.7
20260902115010 72 245 1.0 3.0 0.00 0.00 0.00 82 1011.7
20260902114010 73 355 0.0 2.0 0.00 0.00 0.00 82 1011.8
20260902113510 73 355 0.0 2.0 0.00 0.00 0.00 81 1011.7
20260902113010 73 355 1.0 2.0 0.00 0.00 0.00 81 1011.7
20260902112510 73 355 0.0 0.0 0.00 0.00 0.00 81 1011.7
20260902112010 73 355 0.0 2.0 0.00 0.00 0.00 81 1011.7
20260902111510 73 355 0.0 3.0 0.00 0.00 0.00 81 1011.7
20260902111010 73 355 1.0 3.0 0.00 0.00 0.00 81 1011.7
20260902110510 73 347 0.0 6.0 0.00 0.00 0.00 81 1011.8
20260902110010 74 337 2.0 7.0 0.00 0.00 0.00 81 1011.8
20260902105510 74 342 3.0 7.0 0.00 0.00 0.00 81 1011.7
20260902105010 74 333 0.0 3.0 0.00 0.00 0.00 81 1011.7
20260902104510 74 349 2.0 3.0 0.00 0.00 0.00 81 1011.6
20260902104010 74 66 1.0 2.0 0.00 0.00 0.00 80 1011.7
20260902103010 74 65 0.0 0.0 0.00 0.00 0.00 79 1011.7
20260902102510 74 66 0.0 0.0 0.00 0.00 0.00 78 1011.7
20260902102010 74 66 0.0 1.0 0.00 0.00 0.00 78 1011.6
20260902101510 75 66 0.0 1.0 0.00 0.00 0.00 78 1011.7
20260902101010 75 65 0.0 1.0 0.00 0.00 0.00 77 1011.7
20260902100509 75 66 0.0 0.0 0.00 0.00 0.00 77 1011.8
20260902095509 75 66 0.0 0.0 0.00 0.00 0.00 76 1011.8
20260902095009 75 66 0.0 0.0 0.00 0.00 0.00 76 1011.7
20260902094509 76 66 0.0 0.0 0.00 0.00 0.00 76 1011.7
20260902094009 76 66 0.0 0.0 0.00 0.00 0.00 75 1011.8
20260902093509 76 66 0.0 1.0 0.00 0.00 0.00 74 1011.9
20260902093009 76 66 0.0 1.0 0.00 0.00 0.00 74 1012.0
20260902092509 76 66 0.0 0.0 0.00 0.00 0.00 74 1012.0
20260902092009 77 66 0.0 2.0 0.00 0.00 0.00 73 1011.9
20260902091009 77 66 1.0 2.0 0.00 0.00 0.00 73 1011.7
20260902090509 77 65 0.0 2.0 0.00 0.00 0.00 73 1011.6
20260902090010 77 66 0.0 2.0 0.00 0.00 0.00 73 1011.6
20260902085509 77 66 0.0 2.0 0.00 0.00 0.00 72 1011.6
20260902085009 77 66 0.0 2.0 0.00 0.00 0.00 72 1011.7
20260902084009 77 9 1.0 3.0 0.00 0.00 0.00 72 1012.0
20260902083509 77 334 2.0 3.0 0.00 0.00 0.00 72 1012.0
20260902083009 78 335 2.0 3.0 0.00 0.00 0.00 72 1011.9
20260902082509 78 124 1.0 3.0 0.00 0.00 0.00 72 1011.6
20260902082009 77 355 0.0 3.0 0.00 0.00 0.00 72 1011.9
20260902081510 77 315 0.0 7.0 0.00 0.00 0.00 72 1012.0
20260902080510 77 326 5.0 15.0 0.00 0.00 0.00 72 1012.0
20260902080010 77 334 6.0 12.0 0.00 0.00 0.00 73 1012.0
20260902075010 77 158 0.0 3.0 0.00 0.00 0.00 72 1011.0
20260902074510 77 143 2.0 3.0 0.00 0.00 0.00 72 1011.0
20260902074009 77 140 1.0 3.0 0.00 0.00 0.00 72 1011.0
20260902073509 78 133 1.0 3.0 0.00 0.00 0.00 71 1011.0
20260902073013 78 132 1.0 3.0 0.00 0.00 0.00 71 1010.9
20260902072510 78 139 2.0 3.0 0.00 0.00 0.00 71 1010.9
20260902071510 78 148 1.0 5.0 0.00 0.00 0.00 71 1011.0
20260902071009 78 142 1.0 5.0 0.00 0.00 0.00 70 1011.0
20260902070510 78 134 1.0 3.0 0.00 0.00 0.00 70 1010.9
20260902065510 79 130 1.0 3.0 0.00 0.00 0.00 69 1010.9
20260902064510 79 134 1.0 3.0 0.00 0.00 0.00 69 1010.9
20260902064010 79 134 1.0 2.0 0.00 0.00 0.00 69 1010.9
20260902063510 80 134 0.0 3.0 0.00 0.00 0.00 69 1010.8
20260902063010 80 133 1.0 6.0 0.00 0.00 0.00 68 1010.7
20260902062510 80 151 2.0 6.0 0.00 0.00 0.00 68 1010.5
20260902062010 80 160 1.0 5.0 0.00 0.00 0.00 68 1010.4
20260902061010 80 134 2.0 3.0 0.00 0.00 0.00 68 1010.4
20260902060510 80 163 2.0 3.0 0.00 0.00 0.00 67 1010.3
20260902060010 81 150 1.0 5.0 0.00 0.00 0.00 67 1010.2
20260902055510 81 140 1.0 5.0 0.00 0.00 0.00 67 1010.2
20260902055010 81 158 1.0 3.0 0.00 0.00 0.00 67 1010.2
20260902054510 81 168 1.0 5.0 0.00 0.00 0.00 67 1010.2
20260902054010 81 159 1.0 5.0 0.00 0.00 0.00 67 1010.3
20260902053509 81 160 1.0 5.0 0.00 0.00 0.00 67 1010.3
20260902053009 81 147 1.0 3.0 0.00 0.00 0.00 67 1010.3
20260902052009 82 134 1.0 5.0 0.00 0.00 0.00 67 1010.4
20260902050009 82 139 2.0 3.0 0.00 0.00 0.00 67 1010.5